NORTHEAST SUFFOLK  -  Air Quality Alert Air Quality Alert        NORTHERN NASSAU  -  Air Quality Alert Air Quality Alert        NORTHERN QUEENS  -  Air Quality Alert Air Quality Alert        NORTHWEST SUFFOLK  -  Air Quality Alert Air Quality Alert        SOUTHEAST SUFFOLK  -  Air Quality Alert Air Quality Alert        SOUTHERN NASSAU  -  Air Quality Alert Air Quality Alert        SOUTHERN QUEENS  -  Air Quality Alert Air Quality Alert        SOUTHWEST SUFFOLK  -  Air Quality Alert Air Quality Alert      

Active alerts

Northern Queens
  Details for Northern Queens Air Quality Alert
Southern Queens
  Details for Southern Queens Air Quality Alert
Northern Nassau
  Details for Northern Nassau Air Quality Alert
Southern Nassau
  Details for Southern Nassau Air Quality Alert
Northwest Suffolk
  Details for Northwest Suffolk Air Quality Alert
Southwest Suffolk
  Details for Southwest Suffolk Air Quality Alert
Northeast Suffolk
  Details for Northeast Suffolk Air Quality Alert
Southeast Suffolk
  Details for Southeast Suffolk Air Quality Alert


WXM80 ListenWXM80 Stop

You find our weather info also at:

UK Metoffice

WeatherCloud

Weather Underground

Northeastern Weather Network

AWEKAS

Citizen Weather Observer Program (CWOP)

HAMweather, WeatherForYou, PWS Weather


Weather Underground History page Text

Daily Summary for March 11, 2017 Units:  Metric    English   Both
« Previous Day
Next Day »
Daily Weekly Monthly Yearly Custom
  High: Low: Average:
Temperature: -2 °C -8 °C -4.9 °C
Dew Point: -9.8 °C -15.3 °C -12.6 °C
Humidity: 62 % 47 % 55 %
Wind Speed: 23.8 km/h 4 km/h 13.5 km/h
Wind Gust: 42.6 km/h - -
Wind:- - WNW
Pressure: 1023.6 hPa 1014.4 hPa -
Precipitation: 0 mm    
Historical Graphs
 
 
Tabular Data for March 11, 2017
Time Temperature Dew Point Pressure Wind Wind Speed Wind Gust Humidity Rainfall Rate (Hourly)
00:01 -4.7 °C -11.7 °C 1014.4 hPa SW 17.4 km/h 31.5 km/h 58 % 0 mm
00:07 -4.7 °C -11.7 °C 1014.8 hPa NW 23.7 km/h 35.4 km/h 58 % 0 mm
00:12 -4.8 °C -12 °C 1014.8 hPa NW 22.7 km/h 27.8 km/h 57 % 0 mm
00:17 -4.8 °C -11.8 °C 1014.8 hPa WNW 19.3 km/h 27.8 km/h 58 % 0 mm
00:22 -4.9 °C -12.1 °C 1015.1 hPa WNW 22.9 km/h 31.5 km/h 57 % 0 mm
00:27 -4.9 °C -11.9 °C 1015.1 hPa NNW 14.6 km/h 16.7 km/h 58 % 0 mm
00:32 -5 °C -11.8 °C 1015.1 hPa WNW 13.4 km/h 25.9 km/h 59 % 0 mm
00:37 -5.1 °C -11.4 °C 1015.5 hPa NW 19 km/h 31.5 km/h 61 % 0 mm
00:42 -5.1 °C -11.9 °C 1015.5 hPa WSW 15.6 km/h 31.5 km/h 59 % 0 mm
00:47 -5.2 °C -11.7 °C 1015.8 hPa WNW 15.1 km/h 35.4 km/h 60 % 0 mm
00:52 -5.2 °C -11.8 °C 1015.5 hPa WNW 12.6 km/h 25.9 km/h 60 % 0 mm
00:57 -5.3 °C -11.4 °C 1015.8 hPa NNW 16.7 km/h 29 km/h 62 % 0 mm
01:02 -5.3 °C -11.5 °C 1015.8 hPa NW 16.4 km/h 42.6 km/h 62 % 0 mm
01:07 -5.4 °C -11.6 °C 1015.8 hPa NW 12.1 km/h 29.6 km/h 62 % 0 mm
01:12 -5.6 °C -11.9 °C 1015.8 hPa NNW 20.1 km/h 37 km/h 61 % 0 mm
01:17 -5.7 °C -12.2 °C 1015.5 hPa NNW 16.7 km/h 35.2 km/h 60 % 0 mm
01:22 -5.7 °C -12.4 °C 1015.8 hPa WNW 19.6 km/h 37 km/h 59 % 0 mm
01:27 -5.8 °C -12.5 °C 1015.8 hPa NW 12.1 km/h 27.8 km/h 59 % 0 mm
01:32 -5.9 °C -12.6 °C 1015.8 hPa North 16.9 km/h 27.8 km/h 59 % 0 mm
01:37 -5.9 °C -12.3 °C 1015.8 hPa NW 23 km/h 33.3 km/h 61 % 0 mm
01:42 -5.9 °C -12.1 °C 1015.8 hPa NW 12.6 km/h 18.5 km/h 62 % 0 mm
01:47 -6 °C -12.7 °C 1016.1 hPa NNW 14 km/h 31.5 km/h 59 % 0 mm
01:52 -6.1 °C -13 °C 1016.1 hPa North 13.5 km/h 29.6 km/h 58 % 0 mm
01:57 -6.2 °C -13.1 °C 1016.1 hPa NW 19.5 km/h 38.6 km/h 58 % 0 mm
02:02 -6.2 °C -13.4 °C 1016.1 hPa NNW 19.6 km/h 37 km/h 57 % 0 mm
02:07 -6.3 °C -13 °C 1016.1 hPa NNW 13.5 km/h 18.5 km/h 59 % 0 mm
02:12 -6.3 °C -12.4 °C 1016.1 hPa WNW 13.4 km/h 27.8 km/h 62 % 0 mm
02:17 -6.3 °C -12.4 °C 1016.5 hPa WNW 18.5 km/h 31.5 km/h 62 % 0 mm
02:22 -6.4 °C -12.9 °C 1016.5 hPa WNW 14.5 km/h 25.9 km/h 60 % 0 mm
02:27 -6.4 °C -13.2 °C 1016.5 hPa NW 7.4 km/h 18.5 km/h 59 % 0 mm
02:32 -6.5 °C -13.4 °C 1016.1 hPa West 15.1 km/h 29.6 km/h 58 % 0 mm
02:37 -6.6 °C -13.3 °C 1016.1 hPa WNW 13.7 km/h 22.2 km/h 59 % 0 mm
02:42 -6.6 °C -13.3 °C 1016.1 hPa North 23.5 km/h 33.3 km/h 59 % 0 mm
02:47 -6.7 °C -13.2 °C 1016.5 hPa WNW 15.6 km/h 35.2 km/h 60 % 0 mm
02:52 -6.7 °C -13.4 °C 1016.1 hPa West 13 km/h 25.9 km/h 59 % 0 mm
02:57 -6.8 °C -13.5 °C 1016.5 hPa WNW 10 km/h 24.1 km/h 59 % 0 mm
03:02 -6.9 °C -13.6 °C 1016.5 hPa NW 13 km/h 25.9 km/h 59 % 0 mm
03:07 -6.9 °C -13.4 °C 1016.5 hPa NW 10 km/h 31.5 km/h 60 % 0 mm
03:12 -7 °C -13.4 °C 1016.5 hPa WNW 16.9 km/h 25.9 km/h 60 % 0 mm
03:17 -7.1 °C -13.5 °C 1016.5 hPa SW 16.9 km/h 31.5 km/h 60 % 0 mm
03:18 -7.1 °C -13.5 °C 1016.8 hPa WNW 15.6 km/h 25.9 km/h 60 % 0 mm
03:23 -7.1 °C -13.1 °C 1016.5 hPa WNW 12.4 km/h 24.1 km/h 62 % 0 mm
03:28 -7.1 °C -13.3 °C 1016.8 hPa WNW 15.1 km/h 27.8 km/h 61 % 0 mm
03:33 -7.1 °C -13.2 °C 1016.8 hPa NW 11.9 km/h 20.9 km/h 62 % 0 mm
03:38 -7.1 °C -13.2 °C 1016.8 hPa WNW 14.6 km/h 29 km/h 62 % 0 mm
03:43 -7.2 °C -13.4 °C 1016.8 hPa NNW 11.6 km/h 18.5 km/h 61 % 0 mm
03:48 -7.2 °C -13.9 °C 1016.8 hPa NW 12.1 km/h 31.5 km/h 59 % 0 mm
03:53 -7.2 °C -13.9 °C 1016.8 hPa WNW 7.9 km/h 24.1 km/h 59 % 0 mm
03:58 -7.2 °C -13.5 °C 1017.2 hPa NW 14.5 km/h 31.5 km/h 61 % 0 mm
04:03 -7.3 °C -13.7 °C 1017.2 hPa NW 12.4 km/h 31.5 km/h 60 % 0 mm
04:08 -7.3 °C -13.7 °C 1017.2 hPa WNW 13.4 km/h 31.5 km/h 60 % 0 mm
04:14 -7.3 °C -13.5 °C 1017.2 hPa NW 12.1 km/h 29.6 km/h 61 % 0 mm
04:19 -7.3 °C -13.6 °C 1017.5 hPa WNW 10.1 km/h 25.9 km/h 61 % 0 mm
04:24 -7.3 °C -14 °C 1017.5 hPa NW 18.2 km/h 33.3 km/h 59 % 0 mm
04:29 -7.4 °C -14.1 °C 1017.5 hPa WNW 16.9 km/h 27.8 km/h 59 % 0 mm
04:34 -7.4 °C -14.3 °C 1017.5 hPa NW 12.4 km/h 22.5 km/h 58 % 0 mm
04:39 -7.6 °C -14.2 °C 1017.5 hPa WNW 7.1 km/h 31.5 km/h 59 % 0 mm
04:44 -7.5 °C -13.9 °C 1017.8 hPa WNW 7.2 km/h 29.6 km/h 60 % 0 mm
04:49 -7.6 °C -14 °C 1017.8 hPa West 19.3 km/h 27.8 km/h 60 % 0 mm
04:54 -7.6 °C -14.4 °C 1017.8 hPa NW 16.7 km/h 29.6 km/h 58 % 0 mm
04:59 -7.7 °C -14.5 °C 1018.2 hPa WSW 10.3 km/h 25.9 km/h 58 % 0 mm
05:04 -7.7 °C -14.3 °C 1018.2 hPa WNW 13.4 km/h 29.6 km/h 59 % 0 mm
05:09 -7.7 °C -14.6 °C 1018.2 hPa NW 11.3 km/h 22.2 km/h 58 % 0 mm
05:14 -7.7 °C -14.6 °C 1018.2 hPa WNW 12.1 km/h 31.5 km/h 58 % 0 mm
05:19 -7.7 °C -14.3 °C 1018.5 hPa WNW 10.8 km/h 22.5 km/h 59 % 0 mm
05:24 -7.8 °C -14.6 °C 1018.5 hPa NNW 15 km/h 25.9 km/h 58 % 0 mm
05:29 -7.8 °C -14.9 °C 1018.5 hPa NW 14.8 km/h 31.5 km/h 57 % 0 mm
05:34 -7.9 °C -15.2 °C 1018.8 hPa NW 12.7 km/h 24.1 km/h 56 % 0 mm
05:39 -7.9 °C -14.9 °C 1018.8 hPa WNW 11.1 km/h 25.9 km/h 57 % 0 mm
05:44 -7.9 °C -14.8 °C 1018.8 hPa NW 14.5 km/h 24.1 km/h 58 % 0 mm
05:49 -7.9 °C -14.8 °C 1019.2 hPa West 15.8 km/h 31.5 km/h 58 % 0 mm
05:54 -7.9 °C -15 °C 1019.2 hPa NW 12.6 km/h 31.5 km/h 57 % 0 mm
05:59 -7.9 °C -14.8 °C 1019.2 hPa WSW 12.6 km/h 27.8 km/h 58 % 0 mm
06:04 -7.9 °C -15 °C 1019.5 hPa West 6.9 km/h 33.3 km/h 57 % 0 mm
06:09 -7.9 °C -15 °C 1019.5 hPa WNW 14.5 km/h 29.6 km/h 57 % 0 mm
06:14 -8 °C -15.3 °C 1019.5 hPa West 12.9 km/h 35.2 km/h 56 % 0 mm
06:19 -8 °C -15.1 °C 1019.5 hPa WNW 9.7 km/h 29.6 km/h 57 % 0 mm
06:24 -8 °C -15.3 °C 1019.5 hPa NW 10.3 km/h 25.9 km/h 56 % 0 mm
06:29 -8 °C -15.1 °C 1019.5 hPa West 8 km/h 18.5 km/h 57 % 0 mm
06:34 -7.9 °C -15 °C 1019.5 hPa WNW 11.9 km/h 22.2 km/h 57 % 0 mm
06:39 -7.9 °C -14.5 °C 1019.5 hPa NW 10.6 km/h 29.6 km/h 59 % 0 mm
06:44 -7.8 °C -14.6 °C 1019.5 hPa NNW 10.5 km/h 19.3 km/h 58 % 0 mm
06:49 -7.7 °C -14.5 °C 1019.9 hPa NW 17.5 km/h 31.5 km/h 58 % 0 mm
06:54 -7.6 °C -14.6 °C 1019.9 hPa NW 23.8 km/h 42.6 km/h 57 % 0 mm
06:59 -7.6 °C -14.6 °C 1020.2 hPa NW 19.5 km/h 29.6 km/h 57 % 0 mm
07:04 -7.4 °C -14.5 °C 1020.2 hPa NW 16.3 km/h 31.5 km/h 57 % 0 mm
07:09 -7.3 °C -14.4 °C 1020.2 hPa West 15.1 km/h 27.8 km/h 57 % 0 mm
07:15 -7.3 °C -14.8 °C 1020.2 hPa WSW 14.5 km/h 18.5 km/h 55 % 0 mm
07:20 -7.2 °C -14.5 °C 1020.2 hPa WNW 21.4 km/h 38.6 km/h 56 % 0 mm
07:25 -7.2 °C -14.9 °C 1020.5 hPa WNW 12.2 km/h 25.9 km/h 54 % 0 mm
07:30 -7.1 °C -14.2 °C 1020.2 hPa West 11.7 km/h 33.3 km/h 57 % 0 mm
07:35 -7 °C -14.6 °C 1020.2 hPa WNW 13.8 km/h 27.8 km/h 55 % 0 mm
07:40 -7 °C -14.6 °C 1020.5 hPa WNW 13.7 km/h 24.1 km/h 55 % 0 mm
07:45 -6.9 °C -14.5 °C 1020.5 hPa WNW 15.4 km/h 29.6 km/h 55 % 0 mm
07:50 -6.8 °C -14.6 °C 1020.5 hPa WNW 10 km/h 24.1 km/h 54 % 0 mm
07:55 -6.7 °C -14.1 °C 1020.5 hPa WNW 17.5 km/h 29.6 km/h 56 % 0 mm
08:00 -6.7 °C -14.3 °C 1020.5 hPa West 16.3 km/h 22.2 km/h 55 % 0 mm
08:05 -6.7 °C -14.3 °C 1020.5 hPa WNW 11.9 km/h 24.1 km/h 55 % 0 mm
08:10 -6.7 °C -14.2 °C 1020.5 hPa WNW 16.1 km/h 35.2 km/h 55 % 0 mm
08:16 -6.6 °C -13.9 °C 1020.5 hPa WNW 14.2 km/h 25.9 km/h 56 % 0 mm
08:21 -6.4 °C -13.3 °C 1020.5 hPa WNW 9 km/h 32.2 km/h 58 % 0 mm
08:26 -6.4 °C -13.5 °C 1020.5 hPa WNW 11.6 km/h 22.2 km/h 57 % 0 mm
08:31 -6.3 °C -13.4 °C 1020.5 hPa West 11.4 km/h 22.2 km/h 57 % 0 mm
08:36 -6.2 °C -13.6 °C 1020.5 hPa West 11.7 km/h 18.5 km/h 56 % 0 mm
08:41 -6.1 °C -13.2 °C 1020.5 hPa West 12.6 km/h 27.8 km/h 57 % 0 mm
08:46 -6 °C -13.2 °C 1020.9 hPa NW 8.2 km/h 31.5 km/h 57 % 0 mm
08:51 -5.9 °C -13.3 °C 1020.5 hPa WNW 10.3 km/h 18.5 km/h 56 % 0 mm
08:56 -5.9 °C -13.5 °C 1020.5 hPa West 9 km/h 20.4 km/h 55 % 0 mm
09:01 -5.8 °C -13.2 °C 1020.9 hPa NW 10.8 km/h 20.4 km/h 56 % 0 mm
09:06 -5.7 °C -13.1 °C 1020.5 hPa WNW 13.5 km/h 24.1 km/h 56 % 0 mm
09:11 -5.7 °C -13.6 °C 1020.5 hPa WSW 13.2 km/h 20.9 km/h 54 % 0 mm
09:16 -5.7 °C -12.9 °C 1020.5 hPa WNW 12.4 km/h 18.5 km/h 57 % 0 mm
09:22 -5.7 °C -13.1 °C 1020.5 hPa WNW 15.1 km/h 24.1 km/h 56 % 0 mm
09:27 -5.7 °C -12.8 °C 1020.9 hPa SW 12.1 km/h 19.3 km/h 57 % 0 mm
09:32 -5.7 °C -13.3 °C 1020.5 hPa NW 13.4 km/h 25.9 km/h 55 % 0 mm
09:37 -5.4 °C -13.6 °C 1020.5 hPa WNW 18 km/h 35.2 km/h 53 % 0 mm
09:42 -5.3 °C -13.6 °C 1020.5 hPa NW 16.3 km/h 29.6 km/h 52 % 0 mm
09:47 -5.3 °C -13.2 °C 1020.5 hPa SSW 11.3 km/h 29 km/h 54 % 0 mm
09:52 -5.2 °C -12.8 °C 1020.5 hPa WNW 8.2 km/h 16.7 km/h 55 % 0 mm
09:57 -5 °C -12.9 °C 1020.5 hPa NW 12.4 km/h 27.8 km/h 54 % 0 mm
10:02 -5 °C -12.7 °C 1020.2 hPa NW 10.3 km/h 24.1 km/h 55 % 0 mm
10:07 -4.9 °C -12.6 °C 1020.5 hPa WNW 8 km/h 24.1 km/h 55 % 0 mm
10:12 -4.8 °C -12.7 °C 1020.5 hPa WNW 7.7 km/h 18.5 km/h 54 % 0 mm
10:17 -4.8 °C -12.4 °C 1020.5 hPa WNW 13.2 km/h 27.4 km/h 55 % 0 mm
10:23 -4.5 °C -12.7 °C 1020.5 hPa WNW 10.9 km/h 31.5 km/h 53 % 0 mm
10:27 -4.4 °C -12.4 °C 1020.5 hPa West 10.1 km/h 24.1 km/h 54 % 0 mm
10:33 -4.3 °C -12.2 °C 1020.5 hPa North 10.9 km/h 20.4 km/h 54 % 0 mm
10:37 -4.3 °C -11.8 °C 1020.5 hPa WNW 13 km/h 20.9 km/h 56 % 0 mm
10:43 -4.3 °C -12.1 °C 1020.5 hPa NW 15.8 km/h 25.7 km/h 55 % 0 mm
10:48 -4.4 °C -12.1 °C 1020.5 hPa West 12.1 km/h 24.1 km/h 55 % 0 mm
10:53 -4.1 °C -12.2 °C 1020.5 hPa West 11.3 km/h 27.4 km/h 53 % 0 mm
10:58 -3.9 °C -12.1 °C 1020.2 hPa West 18.5 km/h 29.6 km/h 53 % 0 mm
11:03 -3.8 °C -12.4 °C 1020.2 hPa WNW 16.3 km/h 31.5 km/h 51 % 0 mm
11:08 -3.6 °C -12.3 °C 1020.2 hPa WNW 14.8 km/h 25.9 km/h 51 % 0 mm
11:13 -3.5 °C -12.2 °C 1019.9 hPa West 11.9 km/h 18.5 km/h 51 % 0 mm
11:18 -3.4 °C -12.4 °C 1019.9 hPa WNW 18.7 km/h 25.9 km/h 50 % 0 mm
11:23 -3.4 °C -12.7 °C 1019.9 hPa West 11.9 km/h 20.4 km/h 49 % 0 mm
11:28 -3.3 °C -11.7 °C 1019.9 hPa NW 10.6 km/h 20.4 km/h 52 % 0 mm
11:33 -3.2 °C -12.1 °C 1019.9 hPa WNW 13.4 km/h 24.1 km/h 50 % 0 mm
11:38 -3.4 °C -12.3 °C 1019.9 hPa NNW 9.5 km/h 20.4 km/h 50 % 0 mm
11:43 -3.7 °C -12.7 °C 1019.5 hPa NW 15.4 km/h 29.6 km/h 50 % 0 mm
11:48 -3.9 °C -12.1 °C 1019.9 hPa WNW 8.9 km/h 16.7 km/h 53 % 0 mm
11:53 -3.8 °C -12.7 °C 1019.9 hPa NW 10.6 km/h 18.5 km/h 50 % 0 mm
11:58 -3.7 °C -12.3 °C 1019.9 hPa NW 11.1 km/h 27.8 km/h 51 % 0 mm
12:03 -3.8 °C -12.4 °C 1019.9 hPa SW 10.8 km/h 18.5 km/h 51 % 0 mm
12:08 -3.8 °C -12.3 °C 1019.5 hPa WSW 9.7 km/h 20.9 km/h 52 % 0 mm
12:14 -3.8 °C -12.3 °C 1019.5 hPa SW 11.1 km/h 20.4 km/h 52 % 0 mm
12:19 -3.8 °C -12.1 °C 1019.5 hPa West 11.4 km/h 24.1 km/h 53 % 0 mm
12:24 -3.7 °C -11.4 °C 1019.5 hPa NNW 12.4 km/h 18.5 km/h 55 % 0 mm
12:29 -3.3 °C -11.3 °C 1019.5 hPa NW 15.9 km/h 22.2 km/h 54 % 0 mm
12:34 -3 °C -11.3 °C 1019.2 hPa WNW 12.4 km/h 20.4 km/h 53 % 0 mm
12:39 -2.8 °C -11.3 °C 1019.2 hPa WSW 10.9 km/h 31.5 km/h 52 % 0 mm
12:44 -2.6 °C -11.4 °C 1019.2 hPa WNW 12.2 km/h 25.9 km/h 51 % 0 mm
12:49 -2.6 °C -11.1 °C 1019.2 hPa WNW 13.2 km/h 24.1 km/h 52 % 0 mm
12:54 -2.4 °C -11.2 °C 1018.8 hPa NW 16.3 km/h 32.2 km/h 51 % 0 mm
12:59 -2.5 °C -11.3 °C 1019.2 hPa NW 15.4 km/h 33.8 km/h 51 % 0 mm
13:04 -2.3 °C -10.6 °C 1018.8 hPa NW 12.7 km/h 24.1 km/h 53 % 0 mm
13:05 -2.3 °C -10.9 °C 1018.8 hPa NNW 13.4 km/h 24.1 km/h 52 % 0 mm
13:10 -2.1 °C -10.2 °C 1018.8 hPa WNW 11.6 km/h 24.1 km/h 54 % 0 mm
13:15 -2 °C -10.6 °C 1018.8 hPa West 17.5 km/h 31.5 km/h 52 % 0 mm
13:20 -2.2 °C -11.4 °C 1018.8 hPa NW 8.7 km/h 31.5 km/h 49 % 0 mm
13:25 -2.2 °C -11.3 °C 1018.8 hPa NNW 20.9 km/h 24.1 km/h 50 % 0 mm
13:30 -2.4 °C -11.9 °C 1018.5 hPa WNW 16.9 km/h 33.3 km/h 48 % 0 mm
13:35 -2.5 °C -11.5 °C 1018.5 hPa West 11.1 km/h 33.3 km/h 50 % 0 mm
13:40 -2.6 °C -11.6 °C 1018.5 hPa WNW 14.5 km/h 25.9 km/h 50 % 0 mm
13:45 -2.6 °C -12.1 °C 1018.5 hPa West 14.8 km/h 25.9 km/h 48 % 0 mm
13:50 -2.3 °C -10.8 °C 1018.5 hPa North 11.6 km/h 27.8 km/h 52 % 0 mm
13:55 -2.1 °C -11.4 °C 1018.8 hPa WNW 22.5 km/h 42.6 km/h 49 % 0 mm
14:00 -2.2 °C -12 °C 1018.8 hPa WNW 15.6 km/h 31.5 km/h 47 % 0 mm
14:05 -2.2 °C -11.7 °C 1018.5 hPa NNW 15.8 km/h 25.9 km/h 48 % 0 mm
14:11 -2.1 °C -11.2 °C 1018.5 hPa NW 15.4 km/h 40.7 km/h 50 % 0 mm
14:15 -2.3 °C -11.6 °C 1018.5 hPa WNW 15.3 km/h 25.9 km/h 49 % 0 mm
14:21 -2.6 °C -11.3 °C 1018.5 hPa NNW 12.6 km/h 29.6 km/h 51 % 0 mm
14:26 -2.6 °C -11.3 °C 1018.5 hPa West 10.8 km/h 20.4 km/h 51 % 0 mm
14:31 -2.5 °C -11.5 °C 1018.2 hPa WNW 9.8 km/h 35.2 km/h 50 % 0 mm
14:36 -2.4 °C -11.4 °C 1018.2 hPa NW 13.5 km/h 31.5 km/h 50 % 0 mm
14:41 -2.2 °C -10.8 °C 1018.2 hPa West 14.5 km/h 24.1 km/h 52 % 0 mm
14:46 -2.1 °C -11.1 °C 1018.2 hPa NW 12.7 km/h 31.5 km/h 50 % 0 mm
14:51 -2.1 °C -10.8 °C 1018.5 hPa WNW 15 km/h 22.5 km/h 51 % 0 mm
14:56 -2.2 °C -11.2 °C 1018.5 hPa WNW 8.9 km/h 19.3 km/h 50 % 0 mm
15:01 -2.3 °C -11.6 °C 1018.5 hPa WNW 20.3 km/h 31.5 km/h 49 % 0 mm
15:06 -2.4 °C -11.7 °C 1018.5 hPa West 13.4 km/h 27.8 km/h 49 % 0 mm
15:11 -2.4 °C -11.4 °C 1018.5 hPa NNW 9.3 km/h 20.4 km/h 50 % 0 mm
15:16 -2.3 °C -11.6 °C 1018.5 hPa WNW 18 km/h 22.2 km/h 49 % 0 mm
15:21 -2.3 °C -11.4 °C 1018.5 hPa WNW 9.3 km/h 14.8 km/h 50 % 0 mm
15:26 -2.3 °C -11.1 °C 1018.5 hPa NW 15.9 km/h 24.1 km/h 51 % 0 mm
15:31 -2.3 °C -10.9 °C 1018.5 hPa West 9.7 km/h 20.4 km/h 52 % 0 mm
15:37 -2.3 °C -10.8 °C 1018.5 hPa NNW 11.4 km/h 19.3 km/h 52 % 0 mm
15:42 -2.3 °C -10.9 °C 1018.5 hPa West 8.4 km/h 22.2 km/h 52 % 0 mm
15:47 -2.3 °C -10.9 °C 1018.5 hPa WNW 11.7 km/h 14.8 km/h 52 % 0 mm
15:52 -2.4 °C -10.9 °C 1018.5 hPa West 9.2 km/h 22.2 km/h 52 % 0 mm
15:57 -2.4 °C -10.4 °C 1018.5 hPa WNW 15.8 km/h 25.9 km/h 54 % 0 mm
16:02 -2.6 °C -10.6 °C 1018.5 hPa WNW 12.6 km/h 25.9 km/h 54 % 0 mm
16:07 -2.7 °C -10.7 °C 1018.5 hPa WNW 11.1 km/h 24.1 km/h 54 % 0 mm
16:12 -2.7 °C -10.8 °C 1018.8 hPa West 13.8 km/h 37 km/h 54 % 0 mm
16:17 -2.8 °C -10.8 °C 1018.5 hPa NW 14.8 km/h 24.1 km/h 54 % 0 mm
16:22 -2.8 °C -10.8 °C 1018.8 hPa WNW 16.3 km/h 29.6 km/h 54 % 0 mm
16:27 -2.8 °C -10.4 °C 1018.8 hPa WNW 14.8 km/h 33.3 km/h 56 % 0 mm
16:32 -2.9 °C -10.7 °C 1018.8 hPa WNW 11.7 km/h 18.5 km/h 55 % 0 mm
16:37 -2.8 °C -10.8 °C 1018.8 hPa NW 21.7 km/h 31.5 km/h 54 % 0 mm
16:42 -2.8 °C -10.6 °C 1018.8 hPa WSW 13.8 km/h 24.1 km/h 55 % 0 mm
16:47 -2.9 °C -11.2 °C 1018.8 hPa WNW 12.7 km/h 33.3 km/h 53 % 0 mm
16:52 -3 °C -11 °C 1018.8 hPa West 15 km/h 18.5 km/h 54 % 0 mm
16:57 -3 °C -10.8 °C 1018.8 hPa WNW 9 km/h 27.8 km/h 55 % 0 mm
17:03 -2.9 °C -10.5 °C 1018.8 hPa NW 11.4 km/h 25.9 km/h 56 % 0 mm
17:08 -2.9 °C -9.8 °C 1019.2 hPa West 14.3 km/h 20.9 km/h 59 % 0 mm
17:13 -2.9 °C -10.1 °C 1019.2 hPa WNW 11.4 km/h 19.3 km/h 58 % 0 mm
17:18 -3 °C -10.8 °C 1019.2 hPa WNW 10 km/h 31.5 km/h 55 % 0 mm
17:23 -3 °C -11 °C 1019.2 hPa WNW 20.9 km/h 40.2 km/h 54 % 0 mm
17:28 -3 °C -11.3 °C 1019.2 hPa WNW 20.9 km/h 29 km/h 53 % 0 mm
17:33 -3 °C -12.2 °C 1019.2 hPa WNW 19.3 km/h 33.8 km/h 49 % 0 mm
17:38 -3 °C -11.5 °C 1019.5 hPa WNW 9.7 km/h 32.2 km/h 52 % 0 mm
17:43 -3 °C -11.5 °C 1019.5 hPa WNW 12.9 km/h 29 km/h 52 % 0 mm
17:48 -3.1 °C -11.8 °C 1019.5 hPa West 21.2 km/h 29 km/h 51 % 0 mm
17:53 -3.1 °C -12.3 °C 1019.5 hPa WNW 16.1 km/h 35.4 km/h 49 % 0 mm
17:58 -3.2 °C -12.2 °C 1019.5 hPa WSW 9.5 km/h 22.2 km/h 50 % 0 mm
18:03 -3.3 °C -11.5 °C 1019.9 hPa WNW 12.2 km/h 20.9 km/h 53 % 0 mm
18:08 -3.3 °C -11.1 °C 1019.9 hPa WNW 13.8 km/h 20.9 km/h 55 % 0 mm
18:13 -3.3 °C -11.1 °C 1019.9 hPa NW 10.6 km/h 18.5 km/h 55 % 0 mm
18:18 -3.3 °C -10.9 °C 1019.9 hPa NNW 14.5 km/h 24.1 km/h 56 % 0 mm
18:23 -3.4 °C -11.6 °C 1019.9 hPa NNE 9.5 km/h 18.5 km/h 53 % 0 mm
18:28 -3.4 °C -11.7 °C 1020.2 hPa NNW 13.2 km/h 31.5 km/h 53 % 0 mm
18:33 -3.5 °C -11.5 °C 1020.2 hPa NW 11.6 km/h 24.1 km/h 54 % 0 mm
18:38 -3.5 °C -11.5 °C 1020.2 hPa NW 7.4 km/h 22.2 km/h 54 % 0 mm
18:43 -3.6 °C -11.3 °C 1020.5 hPa NW 10 km/h 18.5 km/h 55 % 0 mm
18:48 -3.6 °C -11.1 °C 1020.5 hPa WNW 18.2 km/h 24.1 km/h 56 % 0 mm
18:54 -3.6 °C -11.1 °C 1020.9 hPa WNW 15.1 km/h 31.5 km/h 56 % 0 mm
18:59 -3.7 °C -11.4 °C 1020.5 hPa NNW 19.6 km/h 31.5 km/h 55 % 0 mm
19:04 -3.7 °C -11.4 °C 1020.5 hPa NNW 12.9 km/h 20.4 km/h 55 % 0 mm
19:09 -3.8 °C -11.5 °C 1020.9 hPa NW 12.9 km/h 25.9 km/h 55 % 0 mm
19:14 -3.8 °C -11.6 °C 1020.9 hPa WNW 13.7 km/h 22.2 km/h 55 % 0 mm
19:19 -3.9 °C -11.6 °C 1020.9 hPa NW 14.8 km/h 24.1 km/h 55 % 0 mm
19:24 -3.9 °C -11.7 °C 1020.9 hPa WNW 14.2 km/h 31.5 km/h 55 % 0 mm
19:29 -4 °C -11.7 °C 1020.9 hPa WNW 11.4 km/h 25.9 km/h 55 % 0 mm
19:34 -4 °C -11.5 °C 1020.9 hPa WNW 8 km/h 16.7 km/h 56 % 0 mm
19:39 -4.1 °C -11.8 °C 1021.2 hPa WNW 10.5 km/h 24.1 km/h 55 % 0 mm
19:44 -4.1 °C -11.8 °C 1020.9 hPa NW 13.5 km/h 22.2 km/h 55 % 0 mm
19:49 -4.2 °C -11.7 °C 1021.2 hPa NNW 16.4 km/h 31.5 km/h 56 % 0 mm
19:54 -4.2 °C -11.7 °C 1021.2 hPa WNW 18.5 km/h 29.6 km/h 56 % 0 mm
19:59 -4.3 °C -11.8 °C 1021.2 hPa WNW 10.8 km/h 22.2 km/h 56 % 0 mm
20:04 -4.3 °C -11.8 °C 1021.2 hPa NW 15.1 km/h 27.8 km/h 56 % 0 mm
20:09 -4.3 °C -12.1 °C 1021.2 hPa NW 17.4 km/h 31.5 km/h 55 % 0 mm
20:14 -4.4 °C -12.1 °C 1021.6 hPa WNW 14.8 km/h 24.1 km/h 55 % 0 mm
20:19 -4.4 °C -12.1 °C 1021.6 hPa NNW 14.6 km/h 24.1 km/h 55 % 0 mm
20:24 -4.4 °C -11.9 °C 1021.6 hPa NW 13.7 km/h 25.7 km/h 56 % 0 mm
20:29 -4.4 °C -11.9 °C 1021.9 hPa WNW 18.3 km/h 27.4 km/h 56 % 0 mm
20:34 -4.4 °C -11.9 °C 1021.9 hPa WNW 10.9 km/h 20.4 km/h 56 % 0 mm
20:39 -4.4 °C -11.9 °C 1021.9 hPa WNW 19.3 km/h 30.6 km/h 56 % 0 mm
20:44 -4.5 °C -11.9 °C 1021.9 hPa NW 11.1 km/h 25.7 km/h 56 % 0 mm
20:49 -4.5 °C -12.2 °C 1021.6 hPa NW 11.1 km/h 24.1 km/h 55 % 0 mm
20:54 -4.5 °C -12.2 °C 1021.6 hPa WNW 11.1 km/h 24.1 km/h 55 % 0 mm
20:55 -4.5 °C -12.2 °C 1021.9 hPa West 14.8 km/h 31.5 km/h 55 % 0 mm
21:00 -4.5 °C -11.9 °C 1021.9 hPa NW 14.8 km/h 25.9 km/h 56 % 0 mm
21:05 -4.6 °C -12 °C 1021.9 hPa NW 14.3 km/h 25.9 km/h 56 % 0 mm
21:10 -4.5 °C -11.7 °C 1021.9 hPa WNW 11.4 km/h 20.4 km/h 57 % 0 mm
21:15 -4.5 °C -11.9 °C 1021.9 hPa WNW 14.3 km/h 37 km/h 56 % 0 mm
21:20 -4.6 °C -12.2 °C 1022.2 hPa NW 15.1 km/h 27.8 km/h 55 % 0 mm
21:25 -4.6 °C -12.3 °C 1022.2 hPa West 12.6 km/h 22.2 km/h 55 % 0 mm
21:30 -4.7 °C -13.1 °C 1022.2 hPa WNW 11.3 km/h 22.2 km/h 52 % 0 mm
21:35 -4.8 °C -12.9 °C 1022.2 hPa WNW 12.9 km/h 24.1 km/h 53 % 0 mm
21:41 -4.8 °C -12.9 °C 1022.2 hPa NNW 11.1 km/h 22.2 km/h 53 % 0 mm
21:46 -4.8 °C -12.9 °C 1022.6 hPa NNW 16.3 km/h 33.3 km/h 53 % 0 mm
21:51 -4.8 °C -12.7 °C 1022.2 hPa NW 13.2 km/h 24.1 km/h 54 % 0 mm
21:56 -4.8 °C -12.7 °C 1022.6 hPa WNW 14 km/h 27.8 km/h 54 % 0 mm
22:01 -4.8 °C -12.5 °C 1022.6 hPa WNW 5 km/h 13 km/h 55 % 0 mm
22:06 -4.9 °C -12.8 °C 1022.6 hPa WNW 11.1 km/h 24.1 km/h 54 % 0 mm
22:11 -4.9 °C -13.1 °C 1022.6 hPa WSW 10.3 km/h 20.4 km/h 53 % 0 mm
22:16 -5 °C -13.1 °C 1022.6 hPa WNW 11.7 km/h 20.4 km/h 53 % 0 mm
22:21 -5 °C -12.7 °C 1022.9 hPa NW 9.5 km/h 22.2 km/h 55 % 0 mm
22:26 -5 °C -12.9 °C 1022.6 hPa NW 14.2 km/h 29.6 km/h 54 % 0 mm
22:31 -5.1 °C -13.2 °C 1022.9 hPa NW 20.3 km/h 35.2 km/h 53 % 0 mm
22:36 -5.1 °C -13.4 °C 1022.6 hPa NW 15.3 km/h 31.5 km/h 52 % 0 mm
22:41 -5.1 °C -13 °C 1022.6 hPa West 12.6 km/h 22.5 km/h 54 % 0 mm
22:46 -5.1 °C -13 °C 1022.9 hPa NW 16.9 km/h 29.6 km/h 54 % 0 mm
22:51 -5.1 °C -13 °C 1022.6 hPa NW 15.3 km/h 31.5 km/h 54 % 0 mm
22:56 -5.2 °C -13.1 °C 1022.6 hPa NW 13.5 km/h 25.9 km/h 54 % 0 mm
23:01 -5.2 °C -13.1 °C 1022.6 hPa West 12.1 km/h 19.3 km/h 54 % 0 mm
23:06 -5.2 °C -12.9 °C 1022.9 hPa WNW 10.6 km/h 17.7 km/h 55 % 0 mm
23:11 -5.2 °C -12.7 °C 1022.9 hPa WNW 9.5 km/h 18.5 km/h 56 % 0 mm
23:17 -5.3 °C -12.9 °C 1023.2 hPa NW 15.9 km/h 22.5 km/h 55 % 0 mm
23:21 -5.3 °C -13.2 °C 1022.9 hPa West 8 km/h 18.5 km/h 54 % 0 mm
23:26 -5.3 °C -13.2 °C 1022.9 hPa WNW 15 km/h 29.6 km/h 54 % 0 mm
23:31 -5.3 °C -12.9 °C 1022.9 hPa NW 4 km/h 13 km/h 55 % 0 mm
23:37 -5.4 °C -13.2 °C 1023.2 hPa WSW 17.4 km/h 31.5 km/h 54 % 0 mm
23:42 -5.4 °C -12.8 °C 1023.2 hPa NW 12.6 km/h 24.1 km/h 56 % 0 mm
23:47 -5.4 °C -13 °C 1023.6 hPa WNW 8 km/h 22.2 km/h 55 % 0 mm
23:52 -5.4 °C -13.1 °C 1023.6 hPa WNW 11.3 km/h 18.5 km/h 55 % 0 mm
23:57 -5.4 °C -12.6 °C 1023.6 hPa WNW 11.6 km/h 16.7 km/h 57 % 0 mm
Crab Meadow Weather
Compliments of Weather Underground - 3 mb

Script developed by  Jim McMurry - jmcmurry@mwt.net Adapted for the template by  Wim van der Kuil - Leuven-Template.eu

Extremes: In Wyndham, Australia, the temperature reached 90 degrees F for 333 days in 1946.